This is the latest recevied weather packets stored in our database for station/object KG5WBN. If no packets are shown the sender has not sent any weather packets the latest 10 day(s).
| Time | Temp. | Humidity | Pressure | Rain* | Wind** | Luminosity | Snow |
|---|---|---|---|---|---|---|---|
| 1777669656 | 20.56° C | 99% | 1010.2 hPa | 1.78 mm | - | 17 W/m² | - |
| 1777669352 | 20.56° C | 99% | 1010.2 hPa | 1.78 mm | - | 32 W/m² | - |
| 1777669049 | 20.56° C | 99% | 1010.5 hPa | 3.05 mm | - | 19 W/m² | - |
| 1777668746 | 20.56° C | 99% | 1010.8 hPa | 4.32 mm | - | 10 W/m² | - |
| 1777668443 | 21.11° C | 99% | 1010.8 hPa | 4.32 mm | - | 4 W/m² | - |
| 1777668140 | 20.56° C | 99% | 1010.2 hPa | 4.32 mm | - | 6 W/m² | - |
| 1777667836 | 21.11° C | 99% | 1009.8 hPa | 3.05 mm | - | 10 W/m² | - |
| 1777667533 | 21.11° C | 99% | 1010.2 hPa | 6.1 mm | - | 11 W/m² | - |
| 1777667230 | 21.11° C | 99% | 1010.2 hPa | 13.72 mm | - | 6 W/m² | - |
| 1777666927 | 21.11° C | 99% | 1010.8 hPa | 10.92 mm | - | 11 W/m² | - |
| 1777666624 | 21.67° C | 99% | 1010.8 hPa | 14.99 mm | - | 7 W/m² | - |
| 1777666320 | 21.67° C | 99% | 1010.2 hPa | 36.58 mm | - | 12 W/m² | - |
| 1777666017 | 21.67° C | 99% | 1009.8 hPa | 57.66 mm | - | 24 W/m² | - |
| 1777665715 | 22.22° C | 99% | 1010.8 hPa | 32.51 mm | - | 11 W/m² | - |
| 1777665412 | 22.22° C | 99% | 1009.8 hPa | 16.76 mm | - | 2 W/m² | - |
| 1777665107 | 22.22° C | 99% | 1009.5 hPa | 6.1 mm | - | 1 W/m² | - |
| 1777664803 | 22.22° C | 99% | 1009.1 hPa | 3.05 mm | - | 5 W/m² | - |
| 1777664499 | 22.22° C | 99% | 1009.1 hPa | 1.78 mm | - | 5 W/m² | - |
| 1777664196 | 22.22° C | 99% | 1009.1 hPa | 1.27 mm | - | 10 W/m² | - |
| 1777663895 | 22.22° C | 99% | 1009.1 hPa | 3.05 mm | - | 19 W/m² | - |
| 1777663592 | 22.22° C | 99% | 1009.1 hPa | 1.78 mm | - | 28 W/m² | - |
| 1777663289 | 22.22° C | 98% | 1009.5 hPa | 0 mm | - | 13 W/m² | - |
| 1777662986 | 22.22° C | 98% | 1009.1 hPa | 0 mm | - | 23 W/m² | - |
| 1777662683 | 22.22° C | 98% | 1009.1 hPa | 0 mm | - | 29 W/m² | - |
| 1777662380 | 22.22° C | 97% | 1009.1 hPa | 0 mm | - | 57 W/m² | - |
* Rain latest hour (hover to see other rain measurements)
** Current wind speed in m/s (hover to see current wind gust speed)